Regional Weather Roundup
Issued by NWS San Angelo, TX

Home | Current Version | Previous Version | Text Only | Print | Product List | Glossary On
Versions: 1 2 3 4 5 6 7 8 9 10 11 12 13 14 15 16 17 18 19 20 21 22 23 24 25 26 27 28 29 30 31 32 33 34 35 36 37 38 39 40 41 42 43 44 45 46 47 48 49 50
000
ASUS44 KSJT 290810
RWRSJT
WEST CENTRAL TEXAS REGIONAL WEATHER ROUNDUP
NATIONAL WEATHER SERVICE SAN ANGELO TX
300 AM CDT FRI AUG 29 2014

NOTE: "FAIR" INDICATES FEW OR NO CLOUDS BELOW 12,000 FEET WITH NO
SIGNIFICANT WEATHER AND/OR OBSTRUCTIONS TO VISIBILITY.

TXZ049-054-064>066-071>073-076>078-098-099-113-114-127-128-139-140-
154-155-168>170-290900
...LOCATIONS ACROSS WEST CENTRAL TEXAS...

CITY           SKY/WX    TMP DP  RH WIND       PRES   REMARKS
SAN ANGELO     PTCLDY    77  68  73 N13       29.94R
ABILENE        TSTM      71  68  90 SE22      29.93F
DYESS AFB      MOCLDY    70  68  95 SE16G29   29.90F
JUNCTION       PTCLDY    77  68  73 SE5       29.92S
SWEETWATER     CLOUDY    71  69  95 SE16      29.95F
BROWNWOOD      HVY RAIN  68  66  94 N18G25    29.98R VSB 1/2
COLEMAN        CLOUDY    73  69  88 N7        29.98R THUNDER
SONORA         CLEAR     79  68  69 S12       29.96R
OZONA          FAIR      79  64  61 S16       29.94R
BRADY          PTCLDY    75  70  83 SE7       29.93S
$$

TEXAS PANHANDLE/OKLAHOMA PANHANDLE

CITY           SKY/WX    TMP DP  RH WIND       PRES   REMARKS
AMARILLO       CLOUDY    64  62  93 S5        30.03S FOG
BORGER         CLEAR     65  60  84 S9        30.00F
CANADIAN       CLEAR     66  64  93 SE3       29.97F
DALHART        CLOUDY    63  55  75 CALM      30.07F
DUMAS          MOSUNNY   59  54  82 NW6       30.03F
GUYMON         NOT AVBL
HEREFORD       SUNNY     63  61  94 CALM      30.05R
PAMPA          PTSUNNY   62  60  94 S16       30.01S FOG
PERRYTON       CLEAR     66  61  85 SE12      29.98F
$$

SOUTHERN PANHANDLE/SOUTH PLAINS/ROLLING PLAINS

CITY           SKY/WX    TMP DP  RH WIND       PRES   REMARKS
LUBBOCK        CLOUDY    67  64  90 SE10      29.96F
SNYDER         CLOUDY    70  66  88 S18       29.93F
CHILDRESS      MOCLDY    66  64  93 N6        29.94F FOG
SEMINOLE       SUNNY     69  64  83 SE8       29.97F
$$

PERMIAN BASIN

CITY           SKY/WX    TMP DP  RH WIND       PRES   REMARKS
MIDLAND        PTCLDY    73  66  78 E15       29.93F
ODESSA         PTCLDY    74  64  71 E15       29.94R
WINK           PTCLDY    79  59  50 CALM      29.89S
$$

FAR WEST/SOUTHWEST MOUNTAINS/TRANS PECOS

CITY           SKY/WX    TMP DP  RH WIND       PRES   REMARKS
ALPINE         SUNNY     72  57  58 W9        30.09F
DRYDEN           N/A     84  59  42 SE7       29.88S
EL PASO        CLEAR     76  54  46 CALM      29.99F
FORT STOCKTON  CLEAR     75  62  64 S9        29.92F
GUADALUPE PASS CLEAR     74  39  28 NE12      30.12S
MARFA          CLOUDY    63  55  77 N5        30.09F
PECOS          MOSUNNY   72  65  79 N3        29.88F
$$

DALLAS/FORT WORTH METROPLEX

CITY           SKY/WX    TMP DP  RH WIND       PRES   REMARKS
DFW AIRPORT    CLOUDY    74  66  76 N18       29.94R
FTW MEACHAM    CLOUDY    73  66  78 N12       29.94R
DAL-EXECUTIVE  PTCLDY    80  71  74 VRB3      29.92R
GRAND PRAIRIE  MOCLDY    81  69  68 W3        29.94R
ADDISON        RAIN      76  64  66 N9        29.96S
MESQUITE       MOSUNNY   75  70  83 S5        29.91F
LANCASTER      PTSUNNY   76  68  78 CALM      29.92S
$$

NORTH CENTRAL TEXAS

CITY           SKY/WX    TMP DP  RH WIND       PRES   REMARKS
SHRMAN/DENISON RAIN      72  66  82 W8        29.95S
GAINESVILLE    CLOUDY    68  65  91 W9        29.95F
BRIDGEPORT     TSTM      68  68 100 NE7       29.98F
DENTON         LGT RAIN  71  66  84 NW6       29.95R
WAXAHACHIE     MOSUNNY   75  69  80 CALM      29.93S
GRANBURY       RAIN      73  66  80 NW12      29.97S
$$

WESTERN NORTH TEXAS

CITY           SKY/WX    TMP DP  RH WIND       PRES   REMARKS
WICHITA FALLS  CLOUDY    70  67  90 N3        29.89R
VERNON         CLOUDY    69  65  88 CALM      29.91R
BRECKENRIDGE   CLOUDY    71  69  93 SW8       29.94R
COMANCHE         N/A     74  65  74 N10G21    29.98R
$$

CENTRAL AND SOUTH CENTRAL TEXAS

CITY           SKY/WX    TMP DP  RH WIND       PRES   REMARKS
AUSTIN/BERGSTM PTCLDY    75  72  90 S3        29.89F
WACO           MOCLDY    79  70  74 S12       29.91R
HILLSBORO      SUNNY     77  69  75 SE7       29.92S
TEMPLE         CLEAR     75  66  73 SE6       29.92R
KILLEEN-GRAY   PTCLDY    75  72  88 SE10      29.92S
FORT HOOD      PTCLDY    79  71  76 SE7       29.93R
GEORGETOWN     MOCLDY    77  73  88 SE6       29.94R
LAGO VISTA     CLOUDY    78  72  81 S8        29.93S
SAN MARCOS     CLOUDY    75  70  83 CALM      29.92S
NEW BRAUNFELS  CLOUDY    77  73  87 SE5       29.88S
RANDOLPH AFB   MOCLDY    76  72  88 E3        29.90S
SAN ANTONIO    MOCLDY    79  74  84 E10       29.90F
STINSON        MOCLDY    78  74  87 SE6       29.86F
PLEASANTON     NOT AVBL
LA GRANGE      CLEAR     78  75  91 CALM      29.87S
GIDDINGS       SUNNY     75  71  87 CALM      29.93S
$$

EAST TEXAS

CITY           SKY/WX    TMP DP  RH WIND       PRES   REMARKS
PARIS          PTCLDY    75  66  73 S7        29.92S
CLARKSVILLE    SUNNY     76  69  80 SE3       29.91S
TYLER          MOCLDY    77  72  84 S7        29.92F
LONGVIEW       CLOUDY    78  72  81 S7        29.92S
PALESTINE      SUNNY     75  73  93 CALM      29.93R
NACOGDOCHES    CLEAR     75  72  88 SE5       29.92S
$$

TEXAS HILL COUNTRY AND EDWARDS PLATEAU

CITY           SKY/WX    TMP DP  RH WIND       PRES   REMARKS
LLANO          SUNNY     77  70  78 CALM      29.95S
HORSESHOE BAY  FAIR      77  70  80 SE3       29.92S
KERRVILLE      CLEAR     75  71  88 E6        29.93S
FREDERICKSBRG  CLOUDY    75  70  85 SE5       29.94S
ROCKSPRINGS    SUNNY     75  68  78 SE10      29.96S
HONDO            N/A    N/A N/A N/A MISG      29.90F
UVALDE         SUNNY     79  71  76 E3        29.89S
DEL RIO        CLEAR     83  70  64 SE7       29.85S
$$

SOUTHEAST TEXAS

CITY           SKY/WX    TMP DP  RH WIND       PRES   REMARKS
COLLEGE STN    CLEAR     76  72  87 SE3       29.89S
CALDWELL       SUNNY     75  73  94 CALM      29.92S
CROCKETT       MOSUNNY   79  77  94 CALM      29.93F
BRENHAM        CLEAR     77  74  90 CALM      29.89F
HUNTSVILLE     PTCLDY    78  75  90 CALM      29.90F
CONROE         PTCLDY    75  74  96 CALM      29.90F
HOUSTON BUSH   LGT RAIN  79  77  94 CALM      29.89S
HOUSTON HOBBY  CLEAR     80  75  84 CALM      29.87F
PERLAND        CLEAR     79  75  87 E9        29.88F
WHARTON        MOSUNNY   76  74  96 E3        29.88S
$$

THE UPPER TEXAS COAST

CITY           SKY/WX    TMP DP  RH WIND       PRES   REMARKS
ORANGE         MOSUNNY   79  79 100 E3        29.91F
PORT ARTHUR    PTCLDY    81  75  82 E8        29.88F
GALVESTON      PTCLDY    84  76  76 SE15      29.88F
ANGLETON       MOCLDY    79  77  94 E5        29.86F
BAY CITY       MOSUNNY   79  79 100 CALM      29.86F
$$

TEXAS COASTAL BEND, RIO GRANDE PLAINS DEEP SOUTH TEXAS

CITY           SKY/WX    TMP DP  RH WIND       PRES   REMARKS
VICTORIA       CLEAR     78  75  90 NE6       29.85F
BEEVILLE       FAIR      77  76  96 NE5       29.85F
ROCKPORT       CLEAR     84  77  79 SE12      29.82F
PORT ARANSAS   MOSUNNY   83  78  84 E12       29.81F
PORT LAVACA    SUNNY     80  76  89 SE7       29.84F
CORPUS CHRISTI PTCLDY    83  77  82 E12       29.82F
KINGSVILLE NAS CLOUDY    78  77  96 S7        29.83F
COTULLA        CLEAR     80  73  79 E9        29.86S
LAREDO         CLOUDY    82  74  77 E9        29.86F HAZE
BROWNSVILLE    PTCLDY    81  75  82 S10       29.79F
PORT ISABEL    CLOUDY    82  79  89 S5        29.78F
HEBBRONVILLE   MOSUNNY   79  74  86 E6        29.84F
MCALLEN        PTCLDY    80  76  87 S5        29.80F
WESLACO        CLOUDY    83  75  77 S9        29.78F
FALFURRIAS     CLOUDY    74  68  83 E8        29.81F
EDINBURG       MOSUNNY   82  74  78 CALM      29.79F
$$


USA.gov is the U.S. government's official web portal to all federal, state and local government web resources and services.